TimeEDT,TemperatureF,Dew PointF,Humidity,Sea Level PressureIn,VisibilityMPH,Wind Direction,Wind SpeedMPH,Gust SpeedMPH,PrecipitationIn,Events,Conditions,WindDirDegrees,DateUTC
12:53 AM,34.0,30.0,85,30.38,10.0,Calm,Calm,-,N/A,,Clear,0,2013-04-26 04:53:00
1:53 AM,34.0,30.0,85,30.38,10.0,Calm,Calm,-,N/A,,Clear,0,2013-04-26 05:53:00
3:53 AM,33.1,30.0,89,30.38,6.0,Calm,Calm,-,N/A,,Clear,0,2013-04-26 07:53:00
4:53 AM,33.1,30.0,89,30.39,6.0,Calm,Calm,-,N/A,,Clear,0,2013-04-26 08:53:00
5:53 AM,32.0,28.9,88,30.40,6.0,SE,3.5,-,N/A,,Clear,140,2013-04-26 09:53:00
6:53 AM,32.0,28.9,88,30.41,4.0,SE,4.6,-,N/A,,Clear,130,2013-04-26 10:53:00
7:53 AM,34.0,30.0,85,30.42,10.0,Calm,Calm,-,N/A,,Clear,0,2013-04-26 11:53:00
8:53 AM,44.1,32.0,63,30.43,10.0,South,5.8,-,N/A,,Clear,180,2013-04-26 12:53:00
9:53 AM,48.9,30.9,50,30.41,10.0,South,9.2,-,N/A,,Clear,170,2013-04-26 13:53:00
10:53 AM,51.1,30.9,46,30.43,10.0,South,9.2,-,N/A,,Clear,180,2013-04-26 14:53:00
11:53 AM,55.0,32.0,42,30.42,10.0,SSE,10.4,17.3,N/A,,Clear,150,2013-04-26 15:53:00
12:53 PM,57.0,33.1,40,30.41,10.0,South,10.4,18.4,N/A,,Clear,180,2013-04-26 16:53:00
1:53 PM,60.1,35.1,39,30.40,10.0,South,12.7,20.7,N/A,,Clear,180,2013-04-26 17:53:00
2:53 PM,60.1,35.1,39,30.38,10.0,SSW,12.7,21.9,N/A,,Clear,200,2013-04-26 18:53:00
3:53 PM,61.0,35.1,38,30.36,10.0,South,11.5,20.7,N/A,,Clear,170,2013-04-26 19:53:00
4:53 PM,62.1,35.1,37,30.34,10.0,South,16.1,21.9,N/A,,Clear,170,2013-04-26 20:53:00
5:53 PM,62.1,35.1,37,30.33,10.0,South,11.5,-,N/A,,Clear,180,2013-04-26 21:53:00
6:53 PM,61.0,35.1,38,30.33,10.0,South,12.7,-,N/A,,Clear,170,2013-04-26 22:53:00
7:53 PM,59.0,36.0,42,30.33,10.0,South,11.5,-,N/A,,Clear,170,2013-04-26 23:53:00
8:53 PM,55.9,36.0,47,30.33,10.0,South,8.1,-,N/A,,Clear,180,2013-04-27 00:53:00
9:53 PM,53.1,37.0,55,30.35,10.0,South,5.8,-,N/A,,Clear,170,2013-04-27 01:53:00
10:53 PM,50.0,36.0,59,30.34,10.0,SSE,5.8,-,N/A,,Clear,150,2013-04-27 02:53:00
11:53 PM,48.0,36.0,63,30.34,10.0,SE,6.9,-,N/A,,Clear,140,2013-04-27 03:53:00